Weather in Dubrovnoye

Russia / Tyumen Oblast     57°57′09″N   69°25′48″E
В апреле 2022 года жителям России запретили посещать сайт meteo.paraplan.net по решению Генеральной прокуратуры. Аудитория сайта уменьшилась в 10 раз. Владельцы сайта не видят смысла в поддержке погодного сервера в таких условиях. Сайт будет закрыт в октябре.
temp.,
°C
wind,
m/s
gust,
m/s
humid.,
%
clouds,
%
prec.,
mm/h
press.,
hPa
HPBL,
m
25 september, sun
sun2523:00+7ne41083100 0.0 1015397
02:00+6ne41078100 0.0 1015411
05:00+6ne4982100 0.0 1016450
08:00+5ne41279100 0.6 1016569
11:00+5ne41076100 0.7 1017548
14:00+10ne56465 0.0 10171074
17:00+9ne46537 0.0 10181089
20:00+4ne410705 0.0 1020603
26 september, mon
mon2623:00+2ne297714 0.0 1020307
02:00+2ne49785 0.0 1020597
05:00−1ne4118169 0.0 1020477
08:000ene4117297 0.0 1019594
11:00+4ene5845100 0.0 10181023
14:00+6ene583651 0.0 10161313
17:00+5ene484269 0.0 10161327
20:00+1ne3116034 0.0 1016431
27 september, tue
tue2723:000ne411715 0.0 1016350
02:00−2ne310805 0.0 1016301
05:00−3ne3108613 0.0 1017288
08:00−1ne4874100 0.0 1017389
11:00+2ne4553100 0.0 10181138
14:00+4nne4547100 0.0 10181486
17:00+3nne3550100 0.0 10191255
20:00−1n24705 0.0 102078
28 september, wed
wed2823:00−3n247556 0.0 102078
02:00−3n2376100 0.0 102061
05:00−1nne3768100 0.0 1021352
08:00−1nne358088 0.0 1022439
11:00+1n3365100 0.1 10221063
14:00+3n3458100 0.3 10221305
17:00+2n3567100 0.6 1022888
20:00−1n3897100 0.3 1023507
29 september, thu
thu2923:00−1n389461 0.4 1024416
02:00−3n379856 0.0 1025261
05:00−3n379540 0.0 1026290
08:00−2n38855 0.0 1027302
11:00+3nne3558100 0.0 10281353
14:00+4nne4554100 0.1 10291456
17:00+3n366399 0.2 1030845
20:00−2nnw278190 0.0 1032121